sat.trackr.live / text

‹ back to catalog

STARLINK-34639

NORAD 64767 · 2025-147N

PAYLOAD ACTIVE UNKNOWN

§ Identity

Operator
Country
US
Launch date
2025-07-08
Launch site
AFETR
Launch vehicle
Mass (kg)
RCS (m²)

Purposes: comms

External: N2YO · Heavens-Above · Gunter

§ Orbital elements

Epoch: 2026-09-20T03:44:08.851200Z

Period
93.85 min
Inclination
53.1619°
Eccentricity
0.0000784
Mean motion
15.34400846 rev/d
Perigee alt
462.2 km
Apogee alt
463.2 km
Semi-major
6,840.8 km
B*
3.0079e-4
RAAN
55.3413°
Arg perigee
86.8864°
Mean anomaly
273.2228°
Rev number
6,853

§ Raw data

STARLINK-346391 64767U 25147N   26263.15565800  .00009800  00000+0  30079-3 0  99962 64767  53.1619  55.3413 0000784  86.8864 273.2228 15.34400846 68530

JSON: /api/v1/satellites/64767 · /tle

For live sub-satellite position, see the globe view (requires WebGL).

§ Visibility from observer

Set your observer location to see the next 7 days of passes ≥ 10°. The values pass through the URL so the page stays shareable.

No JS? Fill the form by hand. The geolocation button needs JavaScript.